Location: Prairie State College
(41.5244°N, 87.6382°W)
Time: 15:38:32
(UTC-05:00)

ISS - All Passes

Search period start: 27 September 2016 00:00
Search period end: 07 October 2016 00:00
Orbit: 400 x 410 km, 51.6° (Epoch: 28 September)

Date Brightness Start Highest point End Pass type
(mag) Time Alt. Az. Time Alt. Az. Time Alt. Az.
27 Sep - 00:39:52 10° NNW 00:41:47 14° N 00:43:41 10° NE night (unlit)
27 Sep - 02:16:06 10° NW 02:19:03 29° NNE 02:22:00 10° E night (unlit)
27 Sep - 03:52:31 10° WNW 03:55:37 40° SW 03:58:44 10° SSE night (unlit)
27 Sep - 20:32:14 10° SW 20:35:25 54° SE 20:38:36 10° ENE visible
27 Sep - 22:09:18 10° W 22:12:05 25° NNW 22:14:52 10° NE night (unlit)
27 Sep - 23:47:34 10° NW 23:49:25 14° N 23:51:16 10° NNE night (unlit)
28 Sep - 01:24:12 10° NW 01:26:49 21° NNE 01:29:27 10° ENE night (unlit)
28 Sep - 03:00:20 10° WNW 03:03:38 80° SW 03:06:55 10° SE night (unlit)
28 Sep - 19:40:38 10° SSW 19:43:27 28° SE 19:46:18 10° ENE visible
28 Sep - 21:16:49 10° W 21:19:52 36° NNW 21:22:56 10° NE visible
28 Sep - 22:55:03 10° NW 22:57:03 15° N 22:59:04 10° NNE night (unlit)
29 Sep - 00:32:16 10° NNW 00:34:31 17° NNE 00:36:47 10° ENE night (unlit)
29 Sep - 02:08:18 10° NW 02:11:33 56° NNE 02:14:48 10° ESE night (unlit)
29 Sep - 03:45:31 10° W 03:47:46 17° SW 03:49:59 10° S night (unlit)
29 Sep - 18:49:37 10° SSE 18:51:34 15° SE 18:53:31 10° E daylight
29 Sep - 20:24:30 10° WSW 20:27:43 62° NNW 20:30:58 10° NE visible
29 Sep - 22:02:24 10° WNW 22:04:43 18° NNW 22:07:01 10° NNE visible
29 Sep - 23:40:12 10° NNW 23:42:10 15° N 23:44:08 10° NE night (unlit)
30 Sep - 01:16:21 10° NW 01:19:23 34° NNE 01:22:25 10° E night (unlit)
30 Sep - 02:52:53 10° WNW 02:55:51 31° SW 02:58:48 10° SSE night (unlit)
30 Sep - 19:32:24 10° SW 19:35:38 70° SE 19:38:53 10° ENE visible
30 Sep - 21:09:45 10° WNW 21:12:23 22° NNW 21:15:03 10° NE visible
30 Sep - 22:47:57 10° NNW 22:49:47 14° N 22:51:36 10° NE night (unlit)
01 Oct - 00:24:24 10° NW 00:27:08 24° NNE 00:29:52 10° ENE night (unlit)
01 Oct - 02:00:36 10° WNW 02:03:51 62° SW 02:07:06 10° SE night (unlit)
01 Oct - 18:40:38 10° SSW 18:43:37 35° SE 18:46:38 10° ENE daylight
01 Oct - 20:17:10 10° W 20:20:07 31° NNW 20:23:06 10° NE visible
01 Oct - 21:55:28 10° NW 21:57:22 14° N 21:59:18 10° NNE visible
01 Oct - 23:32:26 10° NNW 23:34:49 18° NNE 23:37:12 10° ENE night (unlit)
02 Oct - 01:08:29 10° NW 01:11:46 70° NNE 01:15:02 10° ESE night (unlit)
02 Oct - 02:46:10 10° W 02:47:52 13° SW 02:49:34 10° SSW night (unlit)
02 Oct - 17:49:18 10° S 17:51:40 19° SE 17:54:03 10° E daylight
02 Oct - 19:24:44 10° WSW 19:27:55 50° NNW 19:31:06 10° NE visible
02 Oct - 21:02:48 10° NW 21:04:58 16° NNW 21:07:09 10° NNE visible
02 Oct - 22:40:23 10° NNW 22:42:26 15° N 22:44:30 10° NE night (unlit)
03 Oct - 00:16:28 10° NW 00:19:35 40° NNE 00:22:42 10° E night (unlit)
03 Oct - 01:53:12 10° WNW 01:55:57 25° SW 01:58:42 10° SSE night (unlit)
03 Oct - 18:32:31 10° SW 18:35:45 89° SSE 18:39:01 10° NE daylight
03 Oct - 20:10:05 10° WNW 20:12:36 20° NNW 20:15:08 10° NNE visible
03 Oct - 21:48:10 10° NNW 21:50:01 14° N 21:51:52 10° NE visible
03 Oct - 23:24:28 10° NW 23:27:20 27° NNE 23:30:11 10° E night (unlit)
04 Oct - 01:00:46 10° WNW 01:03:56 48° SW 01:07:07 10° SE night (unlit)
04 Oct - 17:40:33 10° SSW 17:43:40 45° SE 17:46:49 10° ENE daylight
04 Oct - 19:17:25 10° W 19:20:16 27° NNW 19:23:07 10° NE visible
04 Oct - 20:55:44 10° NW 20:57:34 14° N 20:59:25 10° NNE visible
04 Oct - 22:32:29 10° NNW 22:34:59 20° NNE 22:37:30 10° ENE night (unlit)
05 Oct - 00:08:34 10° NW 00:11:51 87° NNE 00:15:08 10° SE night (unlit)
05 Oct - 01:47:11 10° WSW 01:47:51 10° SW 01:48:32 10° SW night (unlit)
05 Oct - 16:49:00 10° S 16:51:40 24° SE 16:54:20 10° E daylight
05 Oct - 18:24:53 10° WSW 18:27:59 41° NNW 18:31:07 10° NE daylight
05 Oct - 20:03:05 10° NW 20:05:08 15° N 20:07:11 10° NNE visible
05 Oct - 21:40:26 10° NNW 21:42:36 16° NNE 21:44:45 10° NE visible
05 Oct - 23:16:28 10° NW 23:19:40 48° NNE 23:22:51 10° ESE night (unlit)
06 Oct - 00:53:27 10° W 00:55:56 20° SW 00:58:23 10° S night (unlit)
06 Oct - 15:58:12 10° SSE 15:59:42 13° SE 16:01:13 10° ESE daylight
06 Oct - 17:32:32 10° WSW 17:35:47 73° NW 17:39:02 10° NE daylight
06 Oct - 19:10:19 10° WNW 19:12:42 18° NNW 19:15:05 10° NNE visible
06 Oct - 20:48:15 10° NNW 20:50:08 14° N 20:52:02 10° NE visible
06 Oct - 22:24:27 10° NW 22:27:24 30° NNE 22:30:21 10° E night (unlit)
